Veribest, TX

12:44 PM CST on February 07, 2016 (GMT -0600)
San Angelo Regional-Mathis

Weather History for KSJT - August, 2012

Change the Weather History Date:

Wednesday, August 15, 2012

  Actual Average Record
Temperature  
Mean Temperature 89 °F 83 °F  
Max Temperature 102 °F 95 °F 106 °F (1969)
Min Temperature 75 °F 71 °F 62 °F (1920)
Degree Days  
Heating Degree Days 0 0  
Month to date heating degree days 0 0  
Since 1 June heating degree days 0 0  
Since 1 July heating degree days 0 0  
Cooling Degree Days 24 18  
Month to date cooling degree days 365 280  
Year to date cooling degree days 2340 1767  
Since 1 June cooling degree days 1635 1307  
Growing Degree Days 38 (Base 50)    
Moisture  
Dew Point 57 °F    
Average Humidity 40    
Maximum Humidity 60    
Minimum Humidity 19    
Precipitation  
Precipitation 0.00 in 0.07 in 1.51 in (1920)
Month to date precipitation 0.43 0.87  
Year to date precipitation 14.04 12.68  
Sea Level Pressure  
Sea Level Pressure 29.80 in    
Wind  
Wind Speed 9 mph (SSE)    
Max Wind Speed 20 mph    
Max Gust Speed 26 mph    
Visibility 10 miles    
Events      
T = Trace of Precipitation, MM = Missing Value Source: NWS Daily Summary

Daily Weather History Graph

Daily Weather History Graph

Search for Another Location

Airport or City:

Trip Planner

Search our weather history database for the weather conditions in past years. The results will help you decide how hot, cold, wet, or windy it might be!

Date:

Astronomy

Aug. 15, 2012 Rise Set
Actual Time 7:07 AM CDT 8:24 PM CDT
Civil Twilight 6:42 AM CDT 8:49 PM CDT
Nautical Twilight 6:11 AM CDT 9:20 PM CDT
Astronomical Twilight 5:40 AM CDT 9:51 PM CDT
Moon 5:09 AM CDT (8/15) 6:57 PM CDT (8/15)
Length of Visible Light 14h 07m
Length of Day
13h 16m
Waning Crescent, 4% of the Moon is Illuminated
Aug 15
Waning Crescent
Aug 17
New
Aug 24
First Quarter
Aug 31
Full
Sep 8
Last Quarter

Hourly Weather History & Observations

Time (CDT) Temp. Heat Index Dew Point Humidity Pressure Visibility Wind Dir Wind Speed Gust Speed Precip Events Conditions
12:51 AM 84.9 °F 83.9 °F 57.0 °F 38% 29.80 in 10.0 mi South 8.1 mph - N/A   Clear
1:51 AM 82.9 °F 82.4 °F 57.0 °F 41% 29.79 in 10.0 mi South 9.2 mph - N/A   Clear
2:51 AM 80.1 °F 80.6 °F 57.9 °F 47% 29.80 in 10.0 mi South 4.6 mph - N/A   Clear
3:51 AM 79.0 °F - 57.0 °F 47% 29.80 in 10.0 mi South 5.8 mph - N/A   Clear
4:51 AM 79.0 °F - 55.9 °F 45% 29.80 in 10.0 mi South 8.1 mph - N/A   Clear
5:51 AM 79.0 °F - 57.9 °F 48% 29.82 in 10.0 mi Calm Calm - N/A   Clear
6:51 AM 77.0 °F - 57.9 °F 52% 29.81 in 10.0 mi South 8.1 mph - N/A   Clear
7:51 AM 75.9 °F - 60.1 °F 58% 29.84 in 10.0 mi ENE 3.5 mph - N/A   Clear
8:51 AM 80.1 °F 81.2 °F 62.1 °F 54% 29.87 in 10.0 mi East 5.8 mph - N/A   Clear
9:51 AM 84.0 °F 84.5 °F 62.1 °F 47% 29.86 in 10.0 mi SSE 11.5 mph - N/A   Clear
10:51 AM 88.0 °F 87.9 °F 61.0 °F 40% 29.85 in 10.0 mi South 17.3 mph 23.0 mph N/A   Clear
11:51 AM 91.9 °F 91.5 °F 60.1 °F 34% 29.85 in 10.0 mi South 13.8 mph 25.3 mph N/A   Clear
12:51 PM 95.0 °F 94.0 °F 57.9 °F 29% 29.82 in 10.0 mi South 13.8 mph - N/A   Clear
1:51 PM 97.0 °F 95.7 °F 57.0 °F 26% 29.80 in 10.0 mi South 12.7 mph 19.6 mph N/A   Clear
2:51 PM 99.0 °F 96.9 °F 54.0 °F 22% 29.78 in 10.0 mi South 16.1 mph 23.0 mph N/A   Clear
3:51 PM 100.4 °F - 51.8 °F 20% 29.85 in 10.0 mi South 12.7 mph 25.3 mph N/A   Clear
4:51 PM 100.9 °F - 51.1 °F 19% 29.74 in 10.0 mi South 10.4 mph 24.2 mph N/A   Clear
5:51 PM 100.9 °F - 51.1 °F 19% 29.73 in 10.0 mi SSE 11.5 mph 19.6 mph N/A   Clear
6:51 PM 100.0 °F - 52.0 °F 20% 29.72 in 10.0 mi SSE 9.2 mph - N/A   Clear
7:51 PM 97.0 °F 95.0 °F 55.0 °F 24% 29.73 in 10.0 mi SSE 11.5 mph - N/A   Clear
8:51 PM 93.2 °F 91.3 °F 55.4 °F 28% 29.84 in 10.0 mi SSE 10.4 mph - N/A   Clear
9:51 PM 91.9 °F 91.5 °F 60.1 °F 34% 29.78 in 10.0 mi SSE 12.7 mph - N/A   Clear
10:51 PM 89.1 °F 89.0 °F 61.0 °F 39% 29.81 in 10.0 mi South 10.4 mph - N/A   Clear
11:51 PM 87.1 °F 87.0 °F 61.0 °F 41% 29.82 in 10.0 mi SSE 5.8 mph - N/A   Clear